User: anonymous   Login
Location: Unspecified
(0.0000°N, 0.0000°E)
Time: 03:54:39
(UTC+01:00)
Language:

Cosmos 1515 Rocket - Orbit

View from above orbital plane
View from above orbital plane
View from above satellite
View from above satellite

Ground track
Ground track

The orbit data is extracted from the following two-line orbital elements,

1 14552U 83122B   18050.90653211 +.00000085 +00000-0 +74040-5 0  9997
2 14552 082.5242 204.7082 0018593 064.8653 295.4489 14.83434418824817
Epoch (UTC): 19 February 2018 21:45:24
Eccentricity: 0.0018593
inclination: 82.5242°
perigee height: 605 km
apogee height: 631 km
right ascension of ascending node: 204.7082°
argument of perigee: 64.8653°
revolutions per day: 14.83434418
mean anomaly at epoch: 295.4489°
orbit number at epoch: 82481

The dashed part of the orbit path shows where the satellite is in the earth's shadow,  

DLR